Torna al catalogo

STARLINK-11261

AttivoComunicazioniVLEO
NORAD 60724·PAYLOAD·🇺🇸 United States

Lanciato Aug 28, 2024 da Cape Canaveral Space Force Station

Loading…

Prossimi Passaggi (prossime 24 ore)

TLE

AggiornatoSource: CelesTrak SupGP

Epoca: Sep 14, 2026, 22:44 UTC

1 60724C 24152E   26257.94770833  .00061836  00000+0  50932-3 0  2578
2 60724  53.1567 263.4275 0001135  91.7334  73.0594 15.69680744    13

Traccia STARLINK-11261 in tempo reale con AllMySat

Download on the App Store